Location: Bieg
(49.3499°N, 10.3835°E)
Time: 03:39:46
(UTC+00:00)

Daily predictions for brighter satellites

Satellite Brightness Start Highest point End
(mag) Time Altitude Azimuth Time Altitude Azimuth Time Altitude Azimuth
Cosmos 2228 Rocket 3.0 00:05:20 44° SSW 00:06:43 81° W 00:11:14 10° N
Meteor 1-21 4.3 00:04:42 33° S 00:07:17 73° E 00:13:02 10° NNE
Helios 1A Rocket 2.9 00:07:43 40° SE 00:09:00 71° ENE 00:12:52 10° N
Meteor 1-12 Rocket 4.5 00:03:24 10° NNW 00:09:11 60° W 00:11:47 33° SSW
Cosmos 2082 Rocket 2.3 00:07:01 35° S 00:09:29 69° ESE 00:15:11 10° NNE
Cosmos 1833 Rocket 3.6 00:08:10 18° WSW 00:11:56 42° NW 00:17:16 10° NNE
BREEZE-M DEB (TANK) 3.5 00:13:11 40° SW 00:13:44 43° SSW 00:21:19 10° SE
Cosmos 724 4.4 00:12:02 26° SW 00:15:27 74° NW 00:21:19 10° NE
CZ-2D R/B 4.0 00:13:21 10° NE 00:17:31 22° E 00:21:24 11° SE
Cosmos 1908 Rocket 4.2 00:15:31 10° N 00:19:52 51° ENE 00:22:20 23° SE
Cosmos 2360 Rocket 4.1 00:16:11 10° NNW 00:21:09 30° NE 00:26:05 10° ESE
USA 267 3.4 00:17:25 10° NE 00:23:57 76° NNW 00:30:21 11° WSW
DELTA 2 R/B (1) 4.4 00:26:16 29° S 00:26:16 29° S 00:30:47 10° ESE
Cosmos 1455 2.7 00:26:32 10° N 00:29:54 48° ENE 00:31:18 29° SE
Cosmos 1733 Rocket 3.6 00:26:38 10° NNW 00:30:45 43° W 00:31:54 35° SW
Cosmos 841 Rocket 3.7 00:26:47 10° NNW 00:32:01 71° ENE 00:36:20 15° SSE
Resurs 1-4 Rocket 3.6 00:27:51 10° NE 00:32:23 29° E 00:36:00 14° SSE
Nimbus 7 Rocket 4.5 00:27:23 10° NNE 00:33:23 77° WNW 00:36:43 28° SSW
Cosmos 1400 Rocket 3.6 00:32:16 31° WSW 00:33:30 41° WNW 00:37:18 10° N
H-2A R/B 3.9 00:33:11 10° N 00:36:40 23° WNW 00:38:59 15° WSW
Cosmos 2278 3.7 00:35:36 10° NNW 00:41:21 84° ENE 00:46:48 11° SSE
NOSS 3-4 (A) 4.4 00:36:38 10° NW 00:43:03 40° WSW 00:47:10 23° S
NOSS 3-4 (C) 4.3 00:36:45 10° NW 00:43:10 40° WSW 00:47:19 23° S
Cosmos 1346 Rocket 3.2 00:40:43 10° NNW 00:44:24 43° W 00:45:17 37° SW
Cosmos 676 Rocket 4.0 00:42:47 30° SSW 00:45:28 87° WNW 00:50:51 10° NNE
Cosmos 468 Rocket 4.4 00:42:31 10° NNW 00:47:35 46° WSW 00:49:48 29° SSW
SL-08 R/B 4.5 00:44:05 27° SSW 00:47:40 79° W 00:53:51 10° N
Okean 2 3.2 00:49:49 37° SSW 00:51:19 82° W 00:55:19 10° N
Cosmos 1954 Rocket 4.2 00:48:42 28° SW 00:51:33 66° WNW 00:56:51 10° NNE
Cosmos 1745 Rocket 4.1 00:48:37 23° S 00:52:43 74° E 00:59:00 10° NNE
CZ-2C R/B 3.2 00:48:00 10° SE 00:53:01 54° ENE 00:58:04 10° N
Meteor 1-4 Rocket 2.0 00:53:08 53° S 00:53:42 76° E 00:56:41 10° NNE
Cosmos 2333 Rocket 3.4 00:48:39 10° NNW 00:54:05 43° NE 00:59:32 10° ESE
Cosmos 2322 Rocket 2.7 00:53:27 10° NNW 00:59:03 60° ENE 01:04:40 10° SE
Cosmos 1300 4.4 00:56:42 10° NW 00:59:03 17° W 00:59:22 17° W
Cosmos 1703 Rocket 3.5 00:58:54 29° S 01:01:08 89° E 01:05:37 10° N
USA 234 3.7 00:56:31 16° S 01:01:09 37° SW 01:07:10 10° WNW
Cosmos 1953 2.4 01:00:02 10° NNW 01:03:52 53° W 01:05:20 32° SSW
SL-8 R/B 4.1 01:01:01 10° W 01:05:26 38° SSW 01:09:51 10° SE
NPP 3.9 01:01:27 10° NNE 01:06:51 67° ESE 01:10:33 20° S
SL-27 R/B 4.4 01:08:51 11° SE 01:10:14 15° E 01:11:57 10° ENE
Cosmos 1980 Rocket 3.5 01:08:16 10° NW 01:12:26 21° W 01:14:01 19° WSW
Nadezhda 1 Rocket 4.1 01:07:18 10° NNW 01:13:39 64° W 01:18:17 19° S
Cosmos 1242 Rocket 2.8 01:13:25 27° SSE 01:14:36 44° E 01:17:22 10° NNE
Cosmos 1300 Rocket 3.5 01:12:41 10° N 01:17:03 83° E 01:20:24 16° SSE
ADEOS II 2.9 01:14:36 10° NNE 01:19:37 45° E 01:24:12 12° S
MOZ.5/SAFIR/RUBIN 5/SL-8 4.3 01:18:20 24° SSW 01:20:47 43° W 01:25:18 10° NNW
Cosmos 1408 2.9 01:21:25 21° SSE 01:23:03 44° E 01:25:56 10° NNE
COSMOS 2406 3.9 01:19:32 17° WSW 01:23:40 46° NW 01:29:14 10° NNE
IDEFIX/ARIANE 42P 2.6 01:19:25 10° NNE 01:24:43 87° WNW 01:28:28 20° SSW
Lacrosse 5 rocket 1.3 01:21:29 10° WNW 01:25:29 51° SW 01:29:17 10° SE
ALOS 3.9 01:23:18 10° NE 01:27:20 29° E 01:31:20 10° SSE
EXPRESS MD2 3.6 01:27:55 28° S 01:28:50 35° SE 01:32:40 10° E
Okean 1-7 4.1 01:30:04 19° WSW 01:32:19 31° WNW 01:36:11 10° N
ATLAS 2AS CENTAUR R/B 3.3 01:33:49 10° NW 01:40:41 61° NE 01:47:16 10° ESE
Cosmos 1315 Rocket 3.7 01:39:37 20° SW 01:41:45 35° WNW 01:45:23 10° N
SJ 16-02 1.7 01:39:50 16° S 01:43:10 58° ESE 01:47:26 10° NNE
CZ-2C R/B 3.4 01:37:22 10° NNE 01:43:13 79° ESE 01:48:26 13° S
SL-16 R/B 2.5 01:37:58 10° NW 01:43:23 46° WSW 01:48:45 10° S
Cosmos 1850 Rocket 4.2 01:46:14 17° SW 01:50:15 64° WNW 01:55:30 10° NNE
Cosmos 2333 4.4 01:44:46 10° NNW 01:50:31 80° ENE 01:56:17 10° SSE
Cosmos 2082 Rocket 3.7 01:49:14 10° WSW 01:54:05 27° NW 01:58:56 10° NNE
Cosmos 1709 Rocket 4.2 01:49:42 15° SSW 01:54:54 60° WNW 02:01:14 10° N
Cosmos 1741 Rocket 4.2 01:51:18 17° SW 01:55:22 62° WNW 02:00:37 10° NNE
SL-16 R/B 2.6 01:50:07 10° SSE 01:56:23 85° WSW 02:02:43 10° NNW
Cosmos 2219 Rocket 2.6 01:51:05 10° NNW 01:56:44 68° ENE 02:02:22 10° SE
Cosmos 1782 Rocket 4.4 01:52:50 10° NNW 01:56:45 33° W 01:59:39 16° SSW
Cosmos 2181 Rocket 4.0 01:51:01 10° N 01:57:26 85° W 02:03:42 10° S
CZ-2D R/B 2.3 01:52:33 10° N 01:58:00 65° WNW 02:02:42 14° SSW
Cosmos 1703 3.1 02:00:01 14° SSW 02:03:13 82° W 02:06:59 10° N
Meteor 1-28 Rocket 3.0 02:00:00 10° S 02:03:32 64° W 02:07:06 10° NNW
Cosmos 1455 4.1 02:02:28 10° WNW 02:03:57 12° W 02:05:04 11° WSW
AQUA 3.8 01:59:30 10° NNE 02:04:16 87° ESE 02:08:57 10° SSW
COSMOS 2428 4.1 01:59:35 10° NNW 02:05:00 42° NE 02:10:22 10° ESE
Cosmos 2360 Rocket 2.2 01:59:56 10° NW 02:05:32 61° WSW 02:11:06 10° SSE
Cosmos 968 Rocket 3.6 02:02:10 14° SW 02:06:28 67° WNW 02:11:37 10° NNE
USA 267 4.2 02:00:23 10° ENE 02:06:35 48° N 02:12:47 10° WNW
Genesis I 2.9 02:05:37 16° SW 02:08:21 86° SE 02:11:57 10° NE
Meteor 1-24 Rocket 3.9 02:03:03 10° S 02:09:04 89° ESE 02:15:07 10° NNE
RESURS DK-1 2.2 02:05:41 10° NW 02:09:44 70° WSW 02:13:46 10° SSE
MSX 4.3 02:05:22 10° N 02:10:52 48° WNW 02:16:00 12° SW
Resurs 1-4 Rocket 2.6 02:07:21 10° N 02:12:23 47° WNW 02:17:04 12° SW
SAR-Lupe-4 3.7 02:11:14 10° NNE 02:14:49 77° ESE 02:18:23 10° S
FENGYUN 3A 3.8 02:16:34 10° N 02:21:54 64° WNW 02:27:11 10° SSW
IRAS Rocket 4.3 02:16:57 10° NNE 02:22:31 86° ESE 02:28:00 10° SSW
Geosat 4.0 02:26:23 10° SSE 02:31:24 83° WSW 02:36:27 10° NNW
CZ-2C R/B 3.8 02:29:30 10° SW 02:33:37 24° W 02:37:46 10° NW
Cosmos 2221 Rocket 3.7 02:29:41 10° S 02:34:14 88° E 02:38:48 10° N
ASTEX 1 4.2 02:30:15 10° SSE 02:35:03 55° ENE 02:39:51 10° N
SAR-Lupe-1 4.2 02:33:42 10° N 02:37:14 62° WNW 02:40:46 10° SSW
Cosmos 1825 2.2 02:34:33 10° S 02:37:56 70° E 02:41:23 10° NNE
Sich 1 Rocket 3.7 02:33:44 10° NNW 02:38:12 61° W 02:42:35 10° S
Cosmos 2333 Rocket 2.7 02:33:05 10° NW 02:38:20 39° WSW 02:43:36 10° S
Cosmos 2098 Rocket 4.2 02:33:45 10° NNW 02:38:30 40° W 02:44:03 10° SSW
Cosmos 2151 Rocket 3.8 02:36:19 10° NNW 02:40:42 53° W 02:45:01 10° S
Cosmos 1295 Rocket 4.5 02:34:37 10° S 02:40:45 83° W 02:46:53 10° N
Cosmos 2322 Rocket 3.2 02:38:07 10° NW 02:42:42 26° WSW 02:47:16 10° SSW
YAOGAN 6 3.9 02:39:39 10° NNE 02:42:44 34° E 02:45:47 10° SSE
SL-27 R/B 3.3 02:40:40 10° WSW 02:43:06 26° WNW 02:45:34 10° N
Cosmos 1455 Rocket 4.4 02:39:36 10° N 02:43:49 44° ENE 02:48:01 10° SSE
Cosmos 1892 2.4 02:40:33 10° S 02:44:04 83° W 02:47:36 10° N
Cosmos 1025 Rocket 3.9 02:41:49 10° S 02:46:04 53° E 02:50:21 10° NNE
